sat.trackr.live / text

‹ back to catalog

STARLINK-30049

NORAD 56294 · 2023-056J

PAYLOAD ACTIVE UNKNOWN

§ Identity

Operator
Country
US
Launch date
2023-04-19
Launch site
AFETR
Launch vehicle
Mass (kg)
RCS (m²)

Purposes: comms

External: N2YO · Heavens-Above · Gunter

§ Orbital elements

Epoch: 2026-09-20T04:37:44.132160Z

Period
94.27 min
Inclination
43.0027°
Eccentricity
0.0000925
Mean motion
15.27577427 rev/d
Perigee alt
482.4 km
Apogee alt
483.7 km
Semi-major
6,861.2 km
B*
7.2500e-5
RAAN
190.6608°
Arg perigee
266.2190°
Mean anomaly
93.8556°
Rev number
18,978

§ Raw data

STARLINK-300491 56294U 23056J   26263.19287190  .00001733  00000+0  72500-4 0  99992 56294  43.0027 190.6608 0000925 266.2190  93.8556 15.27577427189782

JSON: /api/v1/satellites/56294 · /tle

For live sub-satellite position, see the globe view (requires WebGL).

§ Visibility from observer

Set your observer location to see the next 7 days of passes ≥ 10°. The values pass through the URL so the page stays shareable.

No JS? Fill the form by hand. The geolocation button needs JavaScript.